This is the latest recevied weather packets stored in our database for station/object OK1OBR-13. If no packets are shown the sender has not sent any weather packets the latest 1 day(s).
| Time | Temp. | Humidity | Pressure | Rain* | Wind** | Luminosity | Snow |
|---|---|---|---|---|---|---|---|
| 1777991941 | 21.67° C | 44% | 928.5 hPa | 0 mm | 0.89 m/s, 153° | - | - |
| 1777991881 | 21.67° C | 43% | 928.5 hPa | 0 mm | 0.89 m/s, 122° | - | - |
| 1777991822 | 21.67° C | 44% | 928.6 hPa | 0 mm | 0.89 m/s, 127° | - | - |
| 1777991761 | 21.67° C | 44% | 928.8 hPa | 0 mm | 0.89 m/s, 121° | - | - |
| 1777991701 | 21.67° C | 44% | 928.8 hPa | 0 mm | 0.89 m/s, 74° | - | - |
| 1777991641 | 21.67° C | 45% | 928.8 hPa | 0 mm | 0.45 m/s, 145° | - | - |
| 1777991586 | 21.67° C | 43% | 928.6 hPa | 0 mm | 0.89 m/s, 149° | - | - |
| 1777991521 | 21.67° C | 43% | 928.6 hPa | 0 mm | 0.89 m/s, 149° | - | - |
| 1777991461 | 22.22° C | 43% | 928.7 hPa | 0 mm | 0.89 m/s, 149° | - | - |
| 1777991401 | 22.22° C | 43% | 928.6 hPa | 0 mm | 1.34 m/s, 138° | - | - |
| 1777991341 | 22.22° C | 41% | 928.6 hPa | 0 mm | 1.34 m/s, 172° | - | - |
| 1777991280 | 22.22° C | 42% | 928.8 hPa | 0 mm | 1.34 m/s, 136° | - | - |
| 1777991225 | 22.22° C | 43% | 928.9 hPa | 0 mm | 1.34 m/s, 162° | - | - |
| 1777991160 | 22.22° C | 45% | 928.8 hPa | 0 mm | 0.45 m/s, 155° | - | - |
| 1777991100 | 22.22° C | 43% | 928.7 hPa | 0 mm | 0.45 m/s, 221° | - | - |
| 1777991041 | 22.22° C | 44% | 928.7 hPa | 0 mm | 0.89 m/s, 162° | - | - |
| 1777990982 | 22.22° C | 43% | 928.7 hPa | 0 mm | 0.45 m/s, 210° | - | - |
| 1777990921 | 22.22° C | 41% | 928.6 hPa | 0 mm | 1.34 m/s, 194° | - | - |
| 1777990862 | 22.22° C | 43% | 929.1 hPa | 0 mm | 1.34 m/s, 193° | - | - |
| 1777990801 | 22.78° C | 41% | 928.9 hPa | 0 mm | 0.89 m/s, 175° | - | - |
| 1777990742 | 22.78° C | 41% | 928.7 hPa | 0 mm | 0.89 m/s, 164° | - | - |
| 1777990681 | 22.78° C | 41% | 928.8 hPa | 0 mm | 0.45 m/s, 210° | - | - |
| 1777990621 | 22.78° C | 42% | 928.9 hPa | 0 mm | 0.45 m/s, 104° | - | - |
| 1777990560 | 22.78° C | 43% | 928.9 hPa | 0 mm | 0.45 m/s, 149° | - | - |
| 1777990502 | 22.78° C | 42% | 928.8 hPa | 0 mm | 0.89 m/s, 155° | - | - |
* Rain since midnight (hover to see other rain measurements)
** Current wind speed in m/s (hover to see current wind gust speed)